TimeCST,TemperatureF,Dew PointF,Humidity,Sea Level PressureIn,VisibilityMPH,Wind Direction,Wind SpeedMPH,Gust SpeedMPH,PrecipitationIn,Events,Conditions,WindDirDegrees,DateUTC
12:53 AM,55.9,48.9,77,29.85,10.0,South,4.6,-,N/A,,Clear,190,2012-12-07 06:53:00
1:53 AM,55.0,48.9,80,29.84,10.0,Calm,Calm,-,N/A,,Clear,0,2012-12-07 07:53:00
2:53 AM,54.0,48.9,83,29.84,8.0,Calm,Calm,-,N/A,,Clear,0,2012-12-07 08:53:00
3:53 AM,55.0,52.0,89,29.83,5.0,Calm,Calm,-,N/A,,Clear,0,2012-12-07 09:53:00
4:18 AM,55.0,54.0,96,29.87,4.0,South,5.8,-,N/A,,Scattered Clouds,180,2012-12-07 10:18:00
4:27 AM,55.9,54.0,93,29.86,4.0,South,4.6,-,N/A,,Mostly Cloudy,170,2012-12-07 10:27:00
4:40 AM,57.0,55.0,93,29.87,4.0,South,5.8,-,N/A,,Overcast,180,2012-12-07 10:40:00
4:53 AM,57.0,55.9,96,29.83,4.0,SSW,4.6,-,N/A,,Overcast,210,2012-12-07 10:53:00
5:11 AM,57.0,55.0,93,29.87,4.0,SW,3.5,-,N/A,,Overcast,220,2012-12-07 11:11:00
5:50 AM,57.2,55.4,94,29.88,2.5,Calm,Calm,-,N/A,,Overcast,0,2012-12-07 11:50:00
5:53 AM,57.0,55.0,93,29.85,2.0,Calm,Calm,-,N/A,,Overcast,0,2012-12-07 11:53:00
6:01 AM,57.0,55.0,93,29.88,1.5,Calm,Calm,-,N/A,,Overcast,0,2012-12-07 12:01:00
6:08 AM,57.0,55.9,96,29.88,1.2,Calm,Calm,-,N/A,,Overcast,0,2012-12-07 12:08:00
6:41 AM,57.0,55.9,96,29.88,0.8,Calm,Calm,-,N/A,,Overcast,0,2012-12-07 12:41:00
6:53 AM,57.9,55.9,93,29.86,0.8,Calm,Calm,-,N/A,,Overcast,0,2012-12-07 12:53:00
7:12 AM,57.9,57.0,97,29.90,1.2,Calm,Calm,-,N/A,,Overcast,0,2012-12-07 13:12:00
7:25 AM,57.9,57.0,97,29.90,1.5,Calm,Calm,-,N/A,,Overcast,0,2012-12-07 13:25:00
7:40 AM,59.0,57.9,96,29.90,2.0,South,4.6,-,N/A,,Overcast,180,2012-12-07 13:40:00
7:53 AM,59.0,57.9,96,29.88,4.0,South,5.8,-,N/A,,Overcast,170,2012-12-07 13:53:00
8:11 AM,60.1,57.0,90,29.90,9.0,South,10.4,-,N/A,,Overcast,190,2012-12-07 14:11:00
8:53 AM,61.0,57.0,87,29.89,6.0,South,6.9,-,N/A,,Overcast,190,2012-12-07 14:53:00
9:32 AM,62.1,57.0,84,29.94,8.0,Variable,5.8,-,N/A,,Overcast,0,2012-12-07 15:32:00
9:53 AM,62.1,57.0,84,29.91,8.0,South,5.8,-,N/A,,Overcast,190,2012-12-07 15:53:00
10:01 AM,62.1,57.0,84,29.94,8.0,South,5.8,-,N/A,,Overcast,190,2012-12-07 16:01:00
10:24 AM,62.1,57.0,84,29.93,7.0,South,4.6,-,N/A,,Overcast,190,2012-12-07 16:24:00
10:53 AM,63.0,57.0,81,29.90,8.0,Variable,5.8,-,N/A,,Overcast,0,2012-12-07 16:53:00
11:53 AM,64.0,57.9,80,29.88,7.0,SSW,6.9,-,N/A,,Overcast,210,2012-12-07 17:53:00
12:53 PM,64.9,57.9,78,29.84,7.0,Variable,4.6,-,N/A,,Overcast,0,2012-12-07 18:53:00
1:53 PM,69.1,59.0,70,29.81,10.0,SSW,5.8,-,N/A,,Scattered Clouds,200,2012-12-07 19:53:00
2:27 PM,72.0,57.9,61,29.83,10.0,South,9.2,-,N/A,,Mostly Cloudy,190,2012-12-07 20:27:00
2:43 PM,71.1,57.9,63,29.83,10.0,South,6.9,-,N/A,,Scattered Clouds,170,2012-12-07 20:43:00
2:53 PM,71.1,57.9,63,29.80,10.0,South,8.1,-,N/A,,Scattered Clouds,190,2012-12-07 20:53:00
3:53 PM,72.0,57.9,61,29.80,10.0,South,8.1,-,N/A,,Clear,170,2012-12-07 21:53:00
4:53 PM,71.1,57.0,61,29.80,10.0,South,9.2,-,N/A,,Clear,180,2012-12-07 22:53:00
5:53 PM,68.0,57.9,70,29.81,10.0,South,5.8,-,N/A,,Clear,180,2012-12-07 23:53:00
8:53 PM,59.0,55.0,87,29.85,6.0,Calm,Calm,-,N/A,,Clear,0,2012-12-08 02:53:00
9:53 PM,57.9,55.0,90,29.86,6.0,NNE,3.5,-,N/A,,Clear,20,2012-12-08 03:53:00
10:53 PM,57.0,54.0,89,29.86,6.0,Calm,Calm,-,N/A,,Clear,0,2012-12-08 04:53:00
11:53 PM,55.9,53.1,90,29.86,6.0,Calm,Calm,-,N/A,,Clear,0,2012-12-08 05:53:00